RH
72 74 72 74 76 77 78 68 49 41 52 75 91 93 95 98 99 99 99 100 101 100 100 100 100 101 99 89 74 64 65 62 55 54 58 63 63 60 58 59 58 56 55 50 39 28 21 18 16 14 12 11 9 7 7 6 6 6 6 9 11 11 11
71 79 76 75 76 77 78 71 57 46 40 50 75 93 98 98 97 98 99 99 100 100 100 100 100 100 101 97 85 74 70 64 57 56 61 66 66 64 62 61 61 59 59 55 41 26 20 19 15 14 12 11 9 7 7 6 6 6 7 11 15 17 17
83 87 81 78 77 76 79 73 59 49 41 36 49 76 97 100 98 99 99 99 100 100 100 100 100 100 101 100 95 88 80 72 63 61 64 68 68 67 66 63 63 63 62 58 44 27 20 19 15 13 12 10 8 7 7 6 6 6 8 13 18 21 21
96 96 89 85 82 78 78 76 65 51 43 35 33 54 88 101 99 100 101 99 99 100 100 100 99 100 101 101 100 95 89 81 73 69 68 70 71 71 69 65 66 68 64 57 44 28 20 17 14 14 13 10 8 8 8 7 6 6 8 14 21 23 23
96 98 97 94 91 86 80 78 73 58 47 39 29 39 76 100 101 99 100 100 100 99 100 99 99 100 100 101 101 98 94 89 83 79 76 73 75 75 72 70 72 73 66 54 41 28 20 15 13 14 13 10 8 8 8 7 6 6 8 14 22 25 24
92 98 98 99 99 94 86 81 80 71 58 48 34 30 53 86 101 100 97 97 98 99 100 99 99 100 99 100 101 100 98 94 90 87 83 79 80 78 76 75 77 76 68 51 35 26 19 14 13 14 12 10 8 8 8 8 6 6 8 14 21 23 24
90 100 100 99 101 100 94 87 85 82 72 60 46 30 30 53 83 99 99 98 99 100 101 99 98 100 99 99 101 101 100 97 93 90 88 85 84 83 81 81 81 78 65 44 30 23 17 14 14 14 12 9 8 8 8 7 7 6 7 14 20 22 23
92 100 101 99 100 102 100 94 89 87 82 71 57 40 26 29 49 73 88 96 99 100 101 100 98 99 99 99 100 101 100 99 96 93 91 89 88 87 85 84 83 76 57 37 27 21 15 13 14 13 11 10 8 8 8 8 7 6 7 12 19 24 26
98 99 100 99 99 100 101 100 96 92 88 80 64 45 32 27 31 45 64 82 96 100 100 100 100 100 99 98 100 100 100 101 100 97 94 93 91 89 87 85 81 68 48 32 24 17 13 14 14 12 11 10 8 8 8 8 7 7 9 13 17 23 30
101 99 97 97 99 100 100 101 100 97 92 84 70 50 35 30 29 33 49 73 92 100 100 100 101 100 99 99 100 100 100 102 102 99 96 94 93 90 87 85 76 57 39 27 19 14 14 14 14 12 10 9 9 8 8 8 8 7 11 16 18 21 27
101 98 94 94 98 100 100 100 101 101 98 88 72 53 39 33 31 33 48 75 94 100 100 100 100 100 99 99 100 100 100 101 101 99 96 95 93 90 87 80 66 46 31 22 17 15 14 14 13 12 10 9 8 8 8 8 8 8 12 20 24 21 22
101 98 96 97 99 99 99 101 100 100 101 91 72 53 40 35 34 33 44 70 92 99 100 100 101 100 99 99 100 100 100 101 102 100 97 95 93 89 85 74 55 37 25 19 17 15 14 14 13 11 10 9 8 8 8 8 8 10 16 26 33 30 26
100 100 100 100 100 100 99 100 100 100 101 91 70 52 40 35 35 32 35 56 81 94 97 100 101 100 99 99 100 101 100 100 102 101 97 95 91 87 81 65 42 26 19 15 15 15 13 13 12 11 9 9 9 8 8 8 9 14 23 32 37 35 31
100 100 101 101 100 100 101 100 99 100 100 90 70 54 42 36 37 35 36 51 69 80 90 99 101 100 99 99 100 101 100 101 102 100 97 94 91 86 74 52 29 18 15 14 13 14 13 12 11 11 9 8 9 9 8 9 9 17 30 35 34 33 34
101 100 100 101 100 99 101 100 99 101 99 89 74 58 45 38 39 39 42 52 60 67 83 98 101 99 100 100 101 100 99 100 101 99 97 94 91 83 63 37 21 16 14 13 13 12 13 12 10 10 9 8 10 9 8 9 11 22 34 34 31 32 38
99 101 99 100 100 100 100 100 99 101 98 88 76 63 50 42 42 44 47 55 65 75 87 98 100 99 100 100 101 99 97 99 101 99 97 95 91 78 52 27 18 16 13 13 13 12 12 11 10 10 9 9 10 9 9 9 12 24 34 34 33 32 38
94 100 100 100 100 99 100 100 100 101 98 91 80 66 53 43 40 49 60 71 82 92 97 100 100 99 100 101 99 97 97 99 101 99 97 96 89 68 41 22 16 14 13 13 13 12 12 11 10 9 9 10 9 9 10 9 12 22 30 34 35 33 37
88 96 100 101 100 99 100 100 101 101 98 94 86 69 54 40 35 54 81 92 96 100 101 100 100 100 101 100 97 96 99 101 101 99 97 95 82 57 33 21 15 13 13 13 12 12 11 10 10 9 9 10 9 9 10 10 13 19 26 32 36 36 41
84 92 99 101 99 100 102 100 101 101 96 92 86 70 56 44 38 59 92 101 98 101 101 99 100 101 99 98 95 96 101 102 100 99 97 90 74 50 30 20 15 13 13 13 12 11 10 10 10 9 9 9 9 10 10 11 14 18 24 32 35 41 55
79 86 97 102 100 100 102 100 100 102 96 92 90 77 61 51 46 62 93 103 98 100 102 99 100 102 98 97 97 98 101 102 101 100 96 83 64 43 26 17 14 14 13 13 12 11 10 10 9 9 11 10 9 10 10 12 16 18 25 32 35 51 74
75 80 92 101 101 100 101 100 100 99 92 91 93 81 65 60 59 68 91 104 99 99 102 100 100 101 99 98 99 100 101 102 102 100 91 72 52 34 21 16 14 13 13 12 12 11 10 10 10 10 11 10 10 10 10 13 17 20 26 33 42 66 85
71 77 87 97 101 100 99 100 101 98 91 87 87 77 66 68 74 77 88 100 101 99 101 101 100 100 99 99 100 101 100 101 102 98 83 62 42 26 18 15 14 13 13 12 11 11 10 10 10 11 12 12 11 11 11 14 18 21 27 37 58 84 91
79 83 86 92 100 101 98 99 100 99 93 86 84 78 69 69 80 88 92 98 101 100 100 100 100 100 99 99 100 101 100 101 101 92 74 51 33 20 16 15 14 13 13 12 11 11 10 9 10 10 12 14 14 13 12 13 17 22 30 49 76 97 97
87 94 93 93 97 96 95 98 101 100 97 93 93 94 86 78 84 95 98 99 100 101 100 100 100 100 100 100 101 100 101 102 98 85 63 40 25 18 16 15 14 13 13 12 12 11 10 9 9 9 10 12 14 15 13 13 16 21 33 60 88 100 98
86 92 95 97 96 92 91 97 101 99 98 97 98 100 98 90 88 95 101 101 100 100 100 100 100 100 101 101 100 100 101 101 93 74 50 30 20 17 17 15 14 14 13 12 12 11 10 9 8 8 9 10 13 16 15 14 15 19 35 67 95 102 97
85 84 87 93 96 93 94 99 102 98 96 98 99 99 98 94 92 94 99 101 100 100 100 100 100 100 100 100 100 101 102 99 84 60 37 24 19 17 16 15 14 14 13 13 13 11 10 10 9 8 9 9 11 14 15 16 15 16 33 66 94 103 99
85 81 79 83 89 92 94 98 101 99 96 98 101 100 99 98 96 95 96 98 100 100 100 100 100 99 100 100 100 101 101 93 73 48 29 21 19 17 16 15 15 14 13 13 12 11 11 10 10 9 9 9 10 12 13 16 15 14 26 57 89 103 101
92 85 79 78 81 87 93 98 99 96 93 95 100 101 100 100 100 99 98 99 101 101 100 100 100 99 100 101 100 101 100 86 61 38 25 20 19 18 17 15 15 15 14 14 13 12 12 11 10 11 10 9 10 10 12 14 16 14 19 43 79 99 100
99 95 90 84 79 82 92 100 101 98 95 97 100 101 100 99 99 100 101 100 100 100 100 100 100 100 101 101 100 101 97 78 49 30 23 21 19 18 17 16 16 16 15 14 14 12 13 12 11 12 12 11 10 11 11 13 16 17 16 27 59 90 99
101 99 99 96 91 87 90 95 99 101 99 99 100 99 98 98 99 100 100 100 100 100 100 100 100 100 100 100 101 101 92 69 42 26 22 21 20 19 18 17 17 16 15 15 14 14 14 14 13 13 13 13 13 12 12 12 14 18 18 18 37 71 94
98 96 98 101 100 97 94 93 95 99 100 100 101 99 96 97 100 101 100 100 100 100 100 100 100 100 100 101 102 99 85 59 35 24 22 22 20 19 19 18 18 17 17 16 15 15 16 15 15 16 14 14 15 13 13 14 13 16 21 19 23 46 75
99 97 98 100 101 101 100 98 96 97 98 98 98 97 96 98 101 101 100 100 100 100 100 100 100 101 101 101 101 95 75 49 30 24 23 22 20 20 19 19 19 17 17 18 17 17 18 18 17 18 16 15 17 16 14 15 14 13 18 21 22 32 52
100 100 100 100 100 100 100 100 100 99 98 97 97 97 96 98 101 100 100 100 100 100 100 100 100 101 101 100 100 90 66 40 27 25 24 22 21 21 20 20 20 18 18 20 20 18 20 21 20 21 20 18 19 18 16 17 16 13 14 18 22 27 37
100 100 100 98 98 98 97 98 100 99 97 96 96 94 93 95 99 100 100 100 100 100 100 100 100 100 100 101 97 80 55 35 28 26 25 22 21 22 21 20 21 20 21 22 22 21 22 23 23 23 23 21 22 22 20 19 18 16 15 14 16 22 29
100 102 99 95 96 97 93 92 94 94 92 89 88 88 90 93 98 100 100 100 100 99 99 100 100 100 100 100 90 67 43 32 29 26 24 23 21 22 23 22 22 23 23 24 23 23 24 25 25 25 25 24 24 24 24 23 21 19 19 17 13 16 21
100 101 98 96 96 94 89 87 89 89 86 85 87 91 93 93 96 100 100 100 101 100 100 100 100 100 101 98 82 57 38 32 30 27 24 23 22 23 24 23 24 25 25 25 25 26 26 27 27 27 26 26 27 27 26 26 26 24 23 22 19 16 16
Wind_Speed
47 47 47 44 41 38 37 37 38 39 40 41 40 39 37 35 35 37 39 42 44 43 42 41 41 42 42 43 45 46 45 45 44 43 42 41 40 40 40 40 40 41 42 40 39 39 39 37 38 39 38 38 41 42 43 45 46 45 45 45 43 40 39
50 49 48 47 44 41 38 36 37 37 38 39 39 39 38 36 36 37 38 41 44 43 41 40 40 41 42 43 45 46 46 46 45 44 43 42 41 41 40 39 40 41 42 41 40 39 38 37 38 39 38 38 41 43 44 45 44 43 44 43 41 39 37
51 48 48 47 45 43 39 36 36 36 36 37 38 39 39 39 37 37 39 42 44 43 41 39 40 41 42 43 45 46 47 47 46 45 44 43 42 42 40 39 39 40 41 42 41 39 38 37 37 38 38 38 40 43 44 45 43 42 42 41 40 38 36
50 48 46 45 44 43 41 38 35 35 35 35 37 38 39 40 39 38 39 41 43 43 42 41 41 41 42 43 44 45 46 48 48 46 45 45 44 42 40 39 39 40 41 42 42 39 38 38 38 38 38 38 40 42 43 44 44 42 41 40 39 38 36
48 47 44 42 41 42 43 40 36 34 33 33 35 36 38 40 40 38 38 40 42 44 44 43 42 42 42 42 43 44 45 47 48 47 46 46 45 42 40 40 40 40 40 41 41 40 38 38 38 38 38 38 40 42 43 43 43 43 42 40 39 37 36
44 45 43 41 39 40 42 42 39 35 33 32 32 34 36 38 39 39 38 39 41 45 46 44 42 42 42 42 42 42 43 44 46 47 47 47 45 42 40 40 40 40 40 40 40 40 39 38 38 39 38 37 39 42 43 43 44 42 41 40 40 37 35
39 41 41 39 39 39 40 42 40 37 35 33 31 32 33 35 38 40 40 40 42 45 46 44 43 43 42 41 40 40 40 42 44 46 47 46 43 41 40 40 40 39 39 38 39 39 38 39 39 39 39 38 40 41 41 43 45 44 41 40 40 38 35
35 39 40 38 37 38 38 40 40 38 35 33 31 30 31 33 36 38 40 40 41 43 45 45 45 43 41 39 39 39 39 40 43 45 45 43 40 39 39 39 39 38 37 37 38 38 38 39 39 39 39 40 41 41 40 41 44 45 42 40 40 38 35
36 39 40 38 36 36 35 36 37 36 34 32 30 30 30 32 34 36 38 38 39 42 44 47 46 42 39 38 37 38 39 39 41 43 42 39 37 37 37 37 37 36 36 36 37 37 37 39 39 39 40 41 41 42 41 41 42 43 42 42 41 39 35
37 39 39 37 36 36 34 32 32 31 30 30 30 30 30 31 32 33 35 36 38 41 43 45 46 42 39 37 36 37 38 39 39 39 38 37 35 35 35 35 34 34 34 36 37 37 37 38 38 38 40 41 42 43 42 42 42 42 42 42 42 38 33
33 36 37 37 37 36 33 31 29 28 29 29 29 30 30 30 30 31 32 34 36 39 41 44 45 43 38 35 34 36 38 38 36 35 35 35 33 33 33 32 32 33 33 35 36 36 37 38 39 39 39 41 43 43 43 41 41 42 42 42 42 38 33
28 29 33 34 35 34 31 29 28 27 28 28 29 29 28 28 28 28 30 32 35 38 41 43 45 42 37 34 34 36 37 36 34 33 33 32 31 31 30 29 30 32 33 35 35 36 36 37 40 40 40 41 43 43 43 41 41 42 42 42 42 39 36
25 23 27 30 32 31 28 26 25 25 25 26 27 27 26 25 25 26 28 31 33 36 39 42 44 41 35 32 33 34 34 33 33 32 31 30 30 29 27 27 28 30 33 34 35 36 37 37 40 41 40 41 43 43 43 42 41 41 41 40 40 38 35
25 20 23 26 29 28 25 22 21 21 22 24 26 25 24 23 23 25 26 28 31 34 36 39 42 39 33 32 33 32 32 32 31 30 29 28 27 26 25 26 27 29 31 33 35 36 37 38 40 42 41 41 41 42 42 42 41 40 39 39 38 36 35
26 20 22 25 26 26 23 19 18 19 20 23 24 22 22 22 23 25 25 25 28 30 32 37 39 36 32 31 31 30 30 30 28 27 26 25 24 24 24 24 25 28 30 31 33 35 36 38 39 41 41 40 40 41 41 41 41 39 38 39 37 36 36
26 21 22 25 26 24 22 17 16 18 20 22 22 21 22 23 23 23 23 23 25 27 30 35 37 33 30 29 28 29 29 28 26 25 23 22 23 23 22 22 24 27 29 30 32 33 35 37 39 40 40 39 39 40 40 41 40 38 39 40 39 38 38
27 22 20 23 25 23 20 16 15 18 21 22 22 21 21 24 23 21 21 22 24 26 30 34 33 30 28 27 27 27 26 25 24 22 21 21 22 21 20 21 24 26 27 29 30 32 34 36 37 38 38 37 38 38 40 41 39 38 39 41 40 39 40
28 24 19 19 22 21 17 15 16 19 21 22 21 20 20 22 21 18 18 21 24 26 30 32 30 28 25 25 25 25 24 23 22 20 19 20 21 19 19 20 22 24 25 26 28 30 32 34 35 35 35 35 36 37 39 40 39 39 39 40 40 40 41
28 25 20 17 17 18 16 15 16 19 21 20 20 20 19 20 19 16 15 19 23 26 28 30 28 25 23 23 23 23 21 20 19 18 19 20 19 18 18 20 21 22 23 24 26 28 30 31 32 33 33 33 35 36 37 38 38 38 38 38 39 40 42
26 25 21 16 14 16 15 15 17 19 21 21 20 19 18 17 16 14 13 16 21 25 28 28 26 22 22 22 21 20 19 18 18 18 18 18 18 18 17 18 20 21 21 23 24 26 27 28 29 30 31 31 33 34 35 35 35 35 36 37 37 38 41
25 22 18 14 13 14 15 16 18 19 21 21 19 17 16 15 14 14 13 14 20 25 27 26 24 22 21 20 19 17 16 17 18 18 18 17 18 17 17 17 19 19 20 21 23 24 26 26 26 27 29 30 31 32 32 32 33 33 34 34 36 38 40
22 20 17 14 13 14 15 16 17 19 20 21 18 15 14 13 13 15 16 16 19 24 27 26 24 22 19 17 16 16 16 17 19 18 17 17 16 16 16 16 17 18 19 21 22 23 24 24 24 25 26 27 28 29 29 30 30 31 32 33 34 37 38
19 18 18 16 15 16 17 17 17 19 19 17 14 11 11 12 11 14 17 17 18 22 25 25 23 20 17 15 15 16 17 18 18 17 16 15 15 15 15 15 16 17 18 20 21 22 22 23 23 24 25 25 26 26 26 27 28 28 29 30 31 34 35
17 17 17 17 16 16 17 17 18 19 17 14 10 8 10 12 13 13 15 17 19 21 23 22 20 18 16 14 15 17 18 18 17 16 15 14 13 14 14 14 15 16 18 19 20 20 21 21 22 23 23 24 25 25 24 25 25 26 27 27 29 32 33
15 16 15 15 14 15 17 18 19 19 16 13 10 9 11 13 15 16 16 17 19 21 21 20 19 18 16 15 17 18 17 16 15 15 13 13 12 13 13 13 15 16 17 18 19 19 19 20 21 21 22 23 25 26 25 25 25 25 25 25 27 29 31
12 14 16 16 14 16 18 17 15 16 16 15 13 12 12 11 13 15 17 17 20 22 22 22 21 19 17 17 18 17 16 15 15 13 12 12 11 11 12 13 14 15 16 17 17 18 18 19 20 21 23 24 26 27 27 26 25 24 23 23 24 25 28
10 11 13 16 18 19 20 17 15 16 17 17 16 14 11 9 10 11 13 16 20 22 23 23 21 19 18 17 17 16 15 15 14 12 11 10 10 10 11 12 13 14 16 16 16 17 17 18 20 22 23 25 26 27 28 28 27 25 23 23 23 23 25
9 11 11 13 17 20 20 18 17 18 19 19 18 16 13 12 12 12 11 14 18 20 21 22 20 19 18 17 16 16 15 14 12 11 10 9 9 10 11 12 13 14 15 14 15 16 17 18 20 21 23 25 26 27 28 28 28 27 25 25 25 24 24
12 13 13 14 15 17 19 18 17 18 20 20 19 17 14 13 15 15 13 11 15 17 18 20 20 19 18 17 16 15 14 13 11 10 8 8 9 9 10 11 12 13 14 14 14 15 16 18 19 20 22 24 26 27 28 29 29 29 27 26 26 25 24
13 13 14 16 17 18 19 21 22 20 19 17 15 15 15 15 17 17 13 10 12 15 17 19 20 19 17 16 15 14 13 12 10 8 8 8 8 9 10 11 12 12 13 13 14 15 15 16 18 19 21 23 24 26 27 28 30 30 29 28 26 25 24
13 15 16 15 17 18 19 22 24 23 20 18 16 17 17 16 16 15 11 8 11 15 18 19 19 18 16 15 15 14 12 10 9 8 7 8 8 9 10 11 11 12 12 12 13 14 15 16 17 19 21 22 23 24 25 27 28 29 29 29 28 27 25
16 19 19 15 16 19 20 21 23 24 23 22 21 19 18 16 14 12 8 7 11 15 17 17 17 17 16 15 14 13 11 10 8 7 7 7 8 8 10 10 11 11 11 12 14 14 15 16 17 19 20 22 23 23 23 24 26 26 27 28 28 28 27
19 21 20 14 13 18 21 23 24 24 24 24 23 20 17 14 12 10 8 7 10 14 16 17 18 18 17 15 13 12 11 9 8 7 7 7 7 8 9 10 10 10 11 12 14 14 15 16 17 19 21 22 22 23 23 24 24 24 25 26 26 26 27
21 19 17 12 11 15 19 22 24 25 25 23 20 17 14 13 12 11 11 10 10 12 14 16 17 17 16 14 12 11 10 9 8 7 7 7 7 8 9 9 9 10 11 12 13 13 14 16 17 18 20 21 22 23 23 23 24 23 23 24 24 25 25
22 15 11 8 8 12 15 18 20 22 21 19 17 15 14 13 12 12 12 11 12 14 15 16 17 16 15 14 12 11 11 10 8 7 6 6 7 7 8 8 8 9 11 12 13 13 14 16 17 18 19 20 21 23 23 23 24 24 24 24 24 24 24
22 15 6 3 5 7 10 14 16 18 18 17 16 15 13 10 8 8 9 11 13 15 16 16 17 17 15 14 13 12 11 10 8 7 7 6 7 7 6 7 8 9 10 12 13 14 15 16 17 18 19 20 22 23 24 24 25 24 25 25 24 24 24
Wind_Direction
269 269 271 273 274 275 276 275 274 273 271 267 261 254 252 253 254 255 254 252 250 251 253 255 257 257 256 255 254 255 255 257 259 261 263 265 267 268 270 274 277 280 283 285 286 287 290 294 295 297 302 304 302 302 302 303 304 304 302 300 296 291 285
267 265 267 270 272 273 274 274 274 273 271 269 265 258 253 253 254 255 253 251 249 249 252 255 256 257 257 256 257 257 257 258 259 261 263 265 266 268 270 274 277 280 283 285 286 288 290 293 295 298 303 305 304 303 303 304 305 303 301 298 293 289 285
266 264 263 265 268 270 272 272 273 273 271 269 266 262 256 251 252 254 253 251 250 249 251 254 255 255 256 256 258 258 258 259 259 261 263 264 266 267 270 273 277 280 284 286 287 289 291 293 295 298 302 305 305 305 304 305 306 303 299 296 292 289 286
268 264 261 261 263 265 268 269 270 271 271 268 266 264 259 252 250 252 252 252 251 250 250 252 253 253 254 256 258 259 259 260 261 262 263 265 266 268 271 274 277 280 284 286 287 289 292 294 296 299 303 306 306 305 305 305 306 303 299 294 290 288 286
269 266 262 260 260 261 263 266 267 268 269 269 265 263 261 254 248 249 252 253 252 251 250 250 251 252 253 255 257 259 261 263 264 265 266 267 268 269 272 275 278 281 284 286 287 290 293 295 297 300 304 307 305 304 305 305 305 303 299 294 290 287 284
271 268 263 260 260 258 259 262 264 265 267 269 267 264 262 256 249 247 250 252 252 252 251 251 251 252 253 254 256 259 263 266 268 268 268 268 269 271 274 277 280 282 284 286 288 290 294 296 298 301 304 306 305 305 306 306 304 302 299 294 290 287 283
270 268 264 260 259 257 256 258 260 262 263 266 268 266 262 258 251 248 250 252 253 253 254 254 254 253 254 255 257 259 263 267 269 268 268 268 269 272 275 278 280 282 284 286 288 291 295 297 299 302 305 306 306 306 307 306 305 304 301 295 291 288 284
266 265 264 260 258 257 254 255 257 258 260 263 266 266 262 258 253 251 252 252 253 254 255 257 255 254 255 256 258 260 262 266 268 268 268 269 270 273 276 279 281 282 284 286 289 292 295 297 299 302 305 307 307 307 307 306 305 306 304 298 294 291 288
264 264 263 260 259 258 255 253 254 256 259 261 262 262 260 256 253 251 251 251 251 251 253 254 254 254 255 257 258 260 262 264 267 269 270 270 271 273 276 279 280 282 284 287 290 293 294 296 299 304 307 308 309 308 308 307 307 306 304 299 295 293 292
268 266 263 259 259 258 255 253 253 255 257 259 259 258 256 255 253 252 250 249 249 249 250 253 254 254 254 255 258 260 262 264 266 269 270 269 270 273 276 278 280 282 286 288 290 292 294 297 301 306 308 309 310 309 309 310 308 305 303 300 296 293 293
274 267 261 258 258 255 249 249 252 253 254 254 254 253 255 256 255 253 250 248 248 248 249 251 252 252 252 254 258 260 262 264 266 268 269 269 270 273 275 277 280 283 286 288 290 293 296 300 303 307 310 311 310 309 310 311 309 306 304 302 300 297 296
282 266 255 253 258 254 243 242 248 249 249 250 249 250 252 255 257 255 251 249 248 248 249 249 250 250 251 253 256 259 262 265 266 267 267 269 271 272 274 276 280 284 287 290 293 296 300 303 306 309 312 312 310 309 311 311 309 307 305 303 303 301 299
292 269 250 251 259 254 241 239 243 244 246 247 247 247 248 253 257 258 254 250 248 248 249 249 249 248 249 251 254 258 262 264 265 266 267 269 271 272 274 277 282 288 290 294 297 299 303 306 308 311 312 311 311 310 311 311 308 306 304 302 302 301 302
299 275 252 255 260 250 238 239 244 244 245 246 245 246 247 251 256 257 255 251 248 247 247 248 247 246 246 249 252 257 261 262 264 265 266 268 270 271 274 278 285 289 291 295 299 301 305 308 309 311 311 311 310 309 310 309 306 306 305 303 303 304 308
302 283 258 259 260 246 235 240 245 243 243 244 244 246 249 251 253 255 256 253 250 247 245 244 245 243 243 247 251 256 259 260 263 264 265 268 269 270 274 280 286 289 291 295 298 301 306 308 309 310 310 310 310 309 309 308 307 309 309 308 307 309 313
302 292 267 260 260 248 236 239 244 241 242 241 240 243 249 252 254 253 255 254 249 244 241 241 241 241 242 247 251 255 258 260 262 262 263 266 267 268 275 282 285 287 291 295 298 302 306 308 308 309 310 311 311 310 309 308 309 312 312 311 311 312 312
298 297 279 263 260 249 237 240 245 241 240 241 239 239 244 251 255 252 249 249 245 240 238 238 238 238 241 246 250 254 258 259 260 260 262 264 265 269 276 280 282 286 290 295 299 303 306 307 308 309 310 311 311 310 310 310 312 313 312 311 312 311 308
294 294 287 270 260 250 238 240 245 243 243 243 241 239 241 250 256 249 241 243 242 238 236 234 234 235 240 245 251 255 258 258 259 260 261 262 264 268 273 276 280 285 290 296 300 303 305 307 308 310 311 312 313 312 311 312 312 312 311 310 309 308 305
291 290 291 282 262 246 238 241 244 243 244 241 239 240 242 250 254 245 235 238 239 236 233 230 231 234 239 245 251 255 257 258 260 262 262 263 264 267 273 278 282 287 292 297 301 303 306 309 310 312 315 316 316 315 313 312 310 309 308 306 307 306 305
288 286 291 289 264 241 239 245 244 243 246 243 239 239 241 248 252 238 226 233 237 233 230 229 231 235 239 245 250 255 257 258 261 262 262 264 265 268 275 281 285 290 294 298 303 305 308 311 312 315 318 319 318 315 312 311 309 307 307 306 307 307 307
287 283 284 283 263 242 242 248 243 244 251 250 243 240 240 245 245 228 213 222 232 230 229 230 233 236 240 245 250 256 260 259 260 261 259 262 266 271 278 281 285 291 297 301 306 308 311 315 318 320 321 320 319 316 314 313 311 309 309 308 308 308 308
285 280 274 269 261 251 252 254 245 243 252 253 245 243 242 244 242 226 211 213 225 229 230 232 235 236 239 245 252 259 260 256 256 257 256 260 267 273 279 283 288 296 301 305 310 312 316 320 322 323 321 320 321 320 318 316 313 311 311 310 310 310 311
282 280 272 264 266 263 258 257 247 241 248 249 243 244 246 242 235 224 215 214 222 230 231 232 235 237 238 245 255 258 254 251 251 253 256 262 269 276 283 289 295 302 306 309 313 316 320 323 324 324 323 322 324 324 322 319 316 314 313 312 311 312 314
277 281 278 268 267 263 256 255 246 238 244 246 239 252 260 245 230 220 218 220 224 229 232 233 236 239 240 246 253 253 249 247 249 252 258 265 272 279 287 295 300 306 309 312 316 319 322 326 328 328 327 326 328 331 331 327 323 320 319 317 316 317 320
275 277 275 268 261 248 248 253 242 232 241 247 244 261 269 251 233 221 218 222 227 231 234 237 239 240 242 247 250 249 245 244 247 252 258 265 273 281 290 297 302 307 310 312 317 321 325 329 331 332 333 334 336 339 340 338 333 328 326 323 321 322 326
287 276 267 262 255 244 247 252 236 227 241 248 247 259 269 258 240 227 219 221 228 233 233 234 236 236 238 244 246 244 242 241 244 250 254 263 274 283 292 299 303 306 309 313 318 324 328 332 335 338 342 343 343 343 344 344 340 335 331 327 326 329 334
311 299 275 259 251 244 246 249 238 232 240 243 242 248 257 261 257 247 233 227 230 234 234 235 235 233 234 240 242 240 239 238 241 246 252 262 276 284 291 298 302 305 310 316 320 325 331 336 341 346 348 347 346 346 347 347 345 342 338 334 334 339 345
310 311 296 274 255 241 239 242 239 234 238 244 243 239 244 258 265 269 264 243 235 236 236 236 234 230 231 237 237 234 234 235 237 243 251 262 277 284 290 297 301 306 311 316 321 329 337 343 347 350 350 349 349 349 349 349 349 349 346 343 341 345 352
295 291 287 281 265 246 235 234 234 235 239 243 240 236 244 258 263 270 276 256 236 233 233 233 230 225 227 233 232 230 231 232 233 241 251 263 276 284 290 297 301 306 311 317 325 336 344 347 350 353 352 351 350 351 351 350 350 351 351 349 348 348 353
303 297 289 277 263 252 240 230 228 233 239 239 236 239 249 256 257 264 273 254 228 223 222 224 224 221 223 228 227 226 228 227 230 239 249 263 276 283 290 297 301 306 314 322 332 340 345 349 353 355 354 353 352 352 354 353 352 352 352 351 353 353 353
318 314 307 284 259 250 242 229 224 228 236 242 244 245 248 251 257 265 270 249 224 219 218 219 218 216 219 223 223 224 224 222 226 236 247 262 275 283 291 298 301 307 318 327 335 341 345 351 357 357 355 354 353 354 357 356 354 353 352 351 354 357 356
320 312 309 292 257 243 236 227 223 226 232 238 242 242 243 250 260 272 275 245 222 219 218 217 214 214 218 220 220 220 217 216 222 232 245 262 274 283 291 297 301 311 323 332 338 343 346 351 358 0 357 355 354 354 357 358 356 356 355 353 354 357 358
322 314 307 290 255 238 230 223 220 223 228 232 235 236 239 247 259 275 280 255 231 222 218 213 211 214 219 219 216 213 210 211 218 229 244 261 272 282 291 296 305 318 329 337 339 342 346 352 359 2 359 356 355 355 356 358 358 358 359 358 356 358 0
330 322 304 280 244 233 230 221 217 220 225 228 230 231 235 244 253 262 263 248 227 217 216 213 212 214 217 216 211 206 204 206 216 227 243 260 271 282 290 298 311 326 333 336 339 341 347 354 359 2 360 356 355 356 357 357 358 358 0 1 1 2 4
343 333 305 267 229 226 228 220 216 218 221 220 221 225 234 243 248 252 252 236 210 198 201 207 210 212 213 209 204 199 199 204 214 225 240 258 270 280 292 303 318 331 334 335 339 344 349 354 357 360 359 357 355 356 357 358 359 360 1 2 4 5 8
357 356 336 251 213 219 222 216 212 212 211 212 216 222 229 236 240 245 242 220 197 189 190 196 203 207 207 203 197 195 197 203 212 225 239 256 269 280 296 309 322 333 334 335 342 347 349 353 358 359 358 357 356 356 356 357 359 1 2 2 3 4 6